Regional Weather Roundup
Issued by NWS

Home | Current Version | Previous Version | Graphics & Text | Print | Product List | Glossary On
Versions: 1 2 3 4 5 6 7 8 9 10 11 12 13 14 15 16 17 18 19 20 21 22 23 24 25 26 27 28 29 30 31 32 33 34 35 36 37 38 39 40 41 42 43 44 45 46 47 48 49 50
000
ASUS45 KSLC 241710
RWRUT

UTAH REGIONAL WEATHER ROUNDUP
NATIONAL WEATHER SERVICE SALT LAKE CITY UT
1100 AM MDT MON APR 24 2017

UTZ001>011-023>025-241800-

NORTHERN UTAH

CITY           SKY/WX    TMP DP  RH WIND       PRES   REMARKS
BRIGHAM CITY   CLOUDY    52  38  59 CALM      29.69S
DUGWAY         CLOUDY    57  37  47 W6        29.68F
HILL AFB       LGT RAIN  47  40  76 S6        29.71S
LOGAN          CLOUDY    49  42  77 VRB5      29.68S
OGDEN          LGT RAIN  50  40  68 SW8       29.70R
SALT LAKE CITY LGT RAIN  53  39  59 W6        29.69S
TOOELE VALLEY  CLOUDY    54  41  62 S8        29.70S
WENDOVER       CLOUDY    55  28  35 W14       29.70S
HEBER CITY     LGT RAIN  45  37  76 CALM      29.70F
WEST JORDAN    CLOUDY    56  47  73 N8        29.70S

$$

UTZ011>015-024>027-241800-

CENTRAL/NORTHEAST UTAH

CITY           SKY/WX    TMP DP  RH WIND       PRES   REMARKS
PROVO AIRPORT  CLOUDY    52  42  69 NE7       29.69F
MOAB/CANYONLAN CLOUDY    63  33  32 SE8       29.70F
DELTA          CLOUDY    52  39  62 SW7       29.70F
PRICE          CLOUDY    51  35  54 CALM      29.75F
RICHFIELD      MOSUNNY   50  37  62 CALM      29.74F
ROOSEVELT      CLOUDY    52  36  54 NE8       29.75F
VERNAL         CLOUDY    51  37  58 CALM      29.75F

$$

UTZ013>016-019>022-027-241800-

SOUTHERN UTAH

CITY           SKY/WX    TMP DP  RH WIND       PRES   REMARKS
BRYCE CANYON   CLOUDY    51  26  37 S8        29.86S
CEDAR CITY     CLOUDY    61  27  27 SW21      29.75F
MILFORD        CLOUDY    52  38  58 S13       29.73F
ST GEORGE      CLOUDY    65  29  25 CALM      29.73F
HANKSVILLE     CLOUDY    59  32  36 CALM      29.73F
KANAB          MOSUNNY   64  25  22 S10       29.84S
BLANDING       CLOUDY    57  24  28 S8        29.89F

$$

REGIONAL REPORTS     COLORADO/ARIZONA

CITY           SKY/WX    TMP DP  RH WIND       PRES   REMARKS
CRAIG, CO      CLOUDY    52  38  58 NE7       29.76F
GRAND JUNCTION CLOUDY    63  32  31 CALM      29.74F
RIFLE, CO      CLOUDY    58  34  40 W12       29.76F
MONTROSE, CO   CLOUDY    61  25  25 CALM      29.79F
CORTEZ, CO     CLOUDY    63  23  21 SW15      29.84F
COLORADO CITY    N/A     66  21  18 S3        29.83S
PAGE, AZ       CLOUDY    64  30  27 N7        29.75F
GRAND CANYON   PTSUNNY   61  24  24 SW23G30   29.90S
KINGMAN, AZ    PTSUNNY   71  26  18 SW21      29.80R
FLAGSTAFF, AZ  PTSUNNY   58  18  21 SW23G35   29.94S

$$

REGIONAL REPORTS    NEVADA/IDAHO/WYOMING

CITY           SKY/WX    TMP DP  RH WIND       PRES   REMARKS
LAS VEGAS, NV  PTSUNNY   72  26  18 VRB6      29.70S
ELY, NY        PTSUNNY   53  21  28 W14G20    29.77S
ELKO, NV       LGT RAIN  39  35  86 SW14      29.81R WCI  31
POCATELLO, ID  LGT RAIN  43  40  89 W10       29.71S
BURLEY, ID     LGT RAIN  42  39  89 W5        29.71S
EVANSTON, WY   CLOUDY    46  32  58 SW18G26   29.72F
ROCK SPRINGS,  CLOUDY    48  35  60 SW5       29.73F
KEMMERER, WY   DRIZZLE   37  32  81 SW7       29.74S WCI  32

$$



USA.gov is the U.S. government's official web portal to all federal, state and local government web resources and services.